BEESAT-4 (41619 NORAD) Tracking and Keplerian Element Data

This shows tracking and keplerian element data for the satellite.

Feedback or suggestion? Click here.




ElementValue
Catalog41619
NameBEESAT-4
Epoch Orbit14520
Epoch Day112.81581272
Epoch Year2019
RAAN176.0876
Inclination97.3727
Eccentricity0.001038
Argument of Perigee216.2066
Mean Anonmoly143.8469
Mean Motion15.22961046
Decay Rate1.254E-05
L11 41619U 16040W 19112.81581272 .00001254 00000-0 56304-4 0 9994
L22 41619 97.3727 176.0876 0010380 216.2066 143.8469 15.22961046145201

Live tracking and technical data element details for BEESAT-4 (NORAD 41619). BEESAT-4 can be tracked NOW for your location showing map with azimuth and elevation plus other details from your city location.

Track the satellite on the map from your city or location and see movement details for azimuth, elevation, latitude, longitude, range, height, and movement on the map or in text.







IsCatalogInMostPopularTable: catalog: 41619, numindb: 205
Update: records affected: 1



GetName: 41619 BEESAT-4

Hit Count: updated at: Tue, 23 Apr 2019 20:32:43 GMT